Regional Weather Roundup
Issued by NWS

Home | Current Version | Previous Version | Text Only | Print | Product List | Glossary On
Versions: 1 2 3 4 5 6 7 8 9 10 11 12 13 14 15 16 17 18 19 20 21 22 23 24 25 26 27 28 29 30 31 32 33 34 35 36 37 38 39 40 41 42 43 44 45 46 47 48 49 50
000
ASUS45 KBOI 270410
RWRID
WEATHER ROUNDUP FOR IDAHO
NATIONAL WEATHER SERVICE BOISE ID
900 PM MST MON JAN 26 2015

NOTE: "FAIR" INDICATES FEW OR NO CLOUDS BELOW 12000 FEET
WITH NO SIGNIFICANT WEATHER AND/OR OBSTRUCTIONS TO VISIBILITY

IDZ012-014-270500-
SOUTHWEST IDAHO


CITY           SKY/WX    TMP DP  RH WIND       PRES   REMARKS
BOISE          PTCLDY    34  32  92 CALM      30.16S
CALDWELL       PTCLDY    34  27  75 W6        30.18S WCI  29
MOUNTAIN HOME  PTCLDY    34  31  89 W5        30.14S WCI  30
$$

IDZ016-017-270500-
SOUTHCENTRAL IDAHO


CITY           SKY/WX    TMP DP  RH WIND       PRES   REMARKS
BURLEY         CLEAR     37  31  78 NE12      30.14F WCI  29
JEROME         CLEAR     37  31  78 NE17      30.14S WCI  27
TWIN FALLS     CLEAR     36  32  85 SE8       30.14S WCI  30
$$

IDZ019>023-270500-
SOUTHEAST IDAHO


CITY           SKY/WX    TMP DP  RH WIND       PRES   REMARKS
IDAHO FALLS    PTCLDY    32  29  88 N7        30.21S WCI  26
POCATELLO      CLEAR     31  30  96 CALM      30.20F
REXBURG        MOCLDY    28  27  96 CALM      30.20F
$$

IDZ006-010-011-018-031-032-270500-
CENTRAL IDAHO MOUNTAINS


CITY           SKY/WX    TMP DP  RH WIND       PRES   REMARKS
MCCALL         PTCLDY    29  26  89 N3        30.12F
HAILEY         PTCLDY    36  30  80 NW9       30.20F WCI  29
STANLEY          N/A     24  19  81 CALM      30.22S
SALMON         CLOUDY   N/A N/A N/A SE3       30.22F VSB 3/4
CHALLIS        CLEAR     29  27  92 CALM      30.19F
$$

IDZ002-004-006-007-026-270500-
NORTHERN IDAHO


CITY           SKY/WX    TMP DP  RH WIND       PRES   REMARKS
LEWISTON       PTCLDY    55  38  52 SE13      29.99F
LOWELL           N/A     36  34  92 VRB3      30.13S
COEUR D`ALENE  PTCLDY    34  30  86 NE6       30.00S WCI  29
MULLAN PASS    CLEAR     45  26  47 SW10G23   30.06F
$$



USA.gov is the U.S. government's official web portal to all federal, state and local government web resources and services.